Location: Newark
(43.0000°N, 1.6781°W)
Time: 07:10:02
(UTC+00:00)

NOAA 19 - Pass Details

Date: 02 December 2022
Orbit: 841 x 859 km, 99.1° (Epoch: 29 January)

Event Time Altitude Azimuth Distance (km) Brightness Sun altitude
Exits shadow 19:05:45 11° 1° (N) 2,365 7.4 -27.3°
Drops below altitude 10° 19:06:02 10° 360° (N) 2,468 7.6 -27.3°
Sets 19:08:31 0° 353° (N) 3,407 8.4 -27.8°
